CZ-11 DEB, 41846

Orbit data source: Space-Track

CZ-11 DEB, 41846 is space debris in SSO originally from a launch on Wed, 09 Nov 2016 UTC launched from the Jiuquan Satellite Launch Center, China (JSC). Debris objects in space refer to the collection of defunct objects orbiting the Earth. Examples of debris include non-operational satellites, rocket bodies, and fragments generated from explosions, collisions, or faulty payload assembly.

Loading next visibility...
Identifier
41846, 2016-066F
Orbit
SSO
Country
Flag of CNCN / PRC
Related business
Manufacturer
CALT
Mission
Spacecraft
Bus & Motor
Unknown
Mass
Unknown
Launch date (UTC)
2016-11-09 (10 years ago)
Launch vehicle
Unknown
Launch site
Jiuquan Satellite Launch Center, China (JSC)
Object type
Payload
Rocket body
Debris
Shape & HBR
Unknown shape, 0.1 m
Radar Cross Section
Medium (>0.1 m² and <1 m²)

Expand to show TLE details & history
Last TLE update: 2 days ago

TLE from 2 days ago
0 CZ-11 DEB
1 41846U 16066F   26171.20164354  .00003258  00000-0  40782-3 0  9996
2 41846  98.4229 261.4703 0307052  94.2461 269.3884 14.54899987505481
Epoch: 2026-06-20T04:50Z
TLE epoch observation values (Epoch: 2026-06-20T04:50:22.001Z)
Latitude
0.00001°
Longitude
-79.54103°
Altitude
721.665 km
Speed
7.49 km/s
True Right ascension
17h 25m 52s
True Declination
0° 00' 00"
Sunlit
Object was in full shadow at epoch
Visualization orbit readout
Latitude
Unknown
Longitude
Unknown
Altitude
Unknown
Speed
Unknown
Apparent Right ascension
Unknown
Apparent Declination
Unknown
Sunlit
N/A
Visualization observer readout
Local Sidereal Time
21:37:24
Azimuth
Unknown
Elevation
Unknown
Doppler factor
Unknown
Orbital elements
Apogee altitude
924.328 km
Perigee altitude
489.24 km
Semi-major axis
7,084.921 km
Eccentricity
0.03071
Inclination
98.4229°
RAAN
261.4703°
Arg. of periapsis
94.2461°
True anomaly
265.87369°
Mean anomaly
269.3884°
Eccentric anomaly
267.63063°
Mean motion
3.63949 °/min
Orbital period
98.91 mins
BSTAR
0.00040782
Loading maneuver chart data...
Computing Atmospheric mass density...
Loading historical data...
Loading historical data...
Loading historical data...
Loading historical data...
Loading historical data...
Loading historical data...
Loading historical data...

Documentation

Showing up to 5 results
|